sat.trackr.live / text

‹ back to catalog

STARLINK-33584

NORAD 62761 · 2025-015D

PAYLOAD ACTIVE UNKNOWN

§ Identity

Operator
Country
US
Launch date
2025-01-21
Launch site
AFWTR
Launch vehicle
Mass (kg)
RCS (m²)

Purposes: comms

External: N2YO · Heavens-Above · Gunter

§ Orbital elements

Epoch: 2026-05-24T21:23:26.108160Z

Period
93.85 min
Inclination
53.1604°
Eccentricity
0.0000848
Mean motion
15.34401420 rev/d
Perigee alt
462.1 km
Apogee alt
463.3 km
Semi-major
6,840.8 km
B*
5.6606e-4
RAAN
328.1091°
Arg perigee
80.5132°
Mean anomaly
279.5966°
Rev number
7,615

§ Raw data

STARLINK-335841 62761U 25015D   26144.89127440  .00018798  00000+0  56606-3 0  99952 62761  53.1604 328.1091 0000848  80.5132 279.5966 15.34401420 76153

JSON: /api/v1/satellites/62761 · /tle

For live sub-satellite position, see the globe view (requires WebGL).

§ Visibility from observer

Set your observer location to see the next 7 days of passes ≥ 10°. The values pass through the URL so the page stays shareable.

No JS? Fill the form by hand. The geolocation button needs JavaScript.